Home   Weather   Boulder   Past weeks

Flag for USA Past Weather in Boulder, Colorado, USA — Yesterday and Last 2 Weeks

Now
77 °F

Broken clouds.


Feels Like: 77 °F
Forecast: 53 / 76 °F
Wind: 6 mph from Northwest

Location: Broomfield / Jeffco

Current Time: Sep 29, 2016 at 7:41:44 PM

Latest Report: Sep 29, 2016 at 4:45 PM


Visibility: 40 mi

Pressure: 30.26 "Hg (25.12 "Hg at 1623m altitude)

Humidity: 26%

Dew Point: 39 °F

Location of BoulderLocation

Past Weather in Boulder — Graph

°F

Boulder Temperature Yesterday

Maximum temperature yesterday: 81 °F (at 2:47 PM)
Minimum temperature yesterday: 54 °F (at 5:15 AM)
Average temperature yesterday: 64 °F

High & Low Weather Summary for the Past Weeks

 TemperatureHumidityPressure
High90 °F (Sep 19, 1:55 PM)94% (Sep 23, 3:56 AM)30.49 "Hg (Sep 23, 3:56 AM)
Low41 °F (Sep 24, 7:45 AM)11% (Sep 19, 1:55 PM)29.70 "Hg (Sep 23, 3:45 PM)
Average62 °F42%30.18 "Hg
* Reported Sep 14 4:45 PM — Sep 29 4:45 PM, Boulder, Weather by CustomWeather, © 2016

Note: Actual official high and low records may vary slightly from our data, if they occured in-between our weather recording intervals... More about our weather records

Advertising

Boulder Weather History for the Previous 24 Hours

Scroll right to see more
 ConditionsComfort  
Time TempWeatherWind HumidityBarometerVisibility
4:45 PM
Thu, Sep 29
77 °FBroken clouds.6 mph26%30.26 "Hg40 mi
3:47 PM79 °FBroken clouds.8 mph24%30.26 "Hg35 mi
2:47 PM81 °FBroken clouds.12 mph23%30.29 "Hg35 mi
1:54 PM77 °FBroken clouds.6 mph24%30.31 "Hg30 mi
12:47 PM73 °FBroken clouds.6 mph27%30.34 "Hg30 mi
11:47 AM68 °FScattered clouds.6 mph33%30.37 "Hg35 mi
10:47 AM66 °FScattered clouds.3 mph35%30.38 "Hg50 mi
9:47 AM63 °FPassing clouds.5 mph39%30.38 "Hg50 mi
8:47 AM59 °FPassing clouds.3 mph45%30.39 "Hg40 mi
7:47 AM50 °FPassing clouds.No wind62%30.38 "Hg50 mi
6:47 AM50 °FPassing clouds.7 mph62%30.37 "Hg50 mi
5:55 AM50 °FClear.3 mph58%30.37 "Hg10 mi
5:35 AM50 °FClear.3 mph58%30.37 "Hg10 mi
5:15 AM52 °FClear.No wind54%30.37 "Hg10 mi
4:55 AM54 °FClear.No wind51%30.37 "Hg10 mi
4:36 AM54 °FClear.No wind54%30.37 "Hg10 mi
4:15 AM54 °FClear.3 mph54%30.37 "Hg10 mi
3:56 AM54 °FClear.7 mph54%30.37 "Hg10 mi
3:35 AM54 °FClear.6 mph54%30.37 "Hg10 mi
3:16 AM54 °FClear.7 mph54%30.37 "Hg10 mi
2:55 AM54 °FClear.6 mph51%30.38 "Hg10 mi
2:36 AM55 °FClear.5 mph47%30.38 "Hg10 mi
2:15 AM55 °FClear.5 mph47%30.38 "Hg10 mi
1:54 AM54 °FClear.6 mph51%30.38 "Hg10 mi
1:35 AM55 °FClear.6 mph47%30.37 "Hg10 mi
1:15 AM59 °FClear.No wind45%30.37 "Hg10 mi
12:55 AM59 °FClear.13 mph45%30.36 "Hg10 mi
12:35 AM61 °FClear.17 mph42%30.36 "Hg10 mi
12:15 AM61 °FClear.15 mph39%30.37 "Hg10 mi
11:56 PM
Wed, Sep 28
61 °FClear.9 mph39%30.38 "Hg10 mi
11:35 PM59 °FClear.3 mph42%30.39 "Hg10 mi
11:14 PM61 °FClear.6 mph39%30.39 "Hg10 mi
9:45 PM64 °FPassing clouds.10 mph34%30.38 "Hg30 mi
8:45 PM66 °FPassing clouds.9 mph32%30.38 "Hg50 mi
7:45 PM72 °FPassing clouds.7 mph23%30.35 "Hg50 mi
Weather by CustomWeather, © 2016

See weather overviewHow to use our weather pages